Stations météo

Publicité
Gourette, France (7775): Température de l'air & dewpoint: 14.08.2017 19:00:00 - 20.08.2017 19:00:00 (CEST)Gourette, France (7775): Vitesse du vent & gusts: 14.08.2017 19:00:00 - 20.08.2017 19:00:00 (CEST)Gourette, France (7775): Direction du vent: 14.08.2017 19:00:00 - 20.08.2017 19:00:00 (CEST)Gourette, France (7775): reduced air pressure: 14.08.2017 19:00:00 - 20.08.2017 19:00:00 (CEST)Gourette, France (7775): visibility: 14.08.2017 19:00:00 - 20.08.2017 19:00:00 (CEST)Gourette, France (7775): Quantités de précipitations: 14.08.2017 19:00:00 - 20.08.2017 19:00:00 (CEST)
Date & Time tt [°C] td [°C] ff [km/h] ff [knt] fx [km/h] fx [knt] dd ppp [hPa] vv [km] rr [mm]
20.08.2017 19:00:00 27,9 17,4 9 5 21 12 NNE 1014,2 - 0,0
20.08.2017 18:00:00 29,6 16,4 12 7 29 16 NE 1014,1 - 0,0
20.08.2017 17:00:00 31,3 15,3 18 10 28 15 NNE 1014,2 - 0,0
20.08.2017 16:00:00 31,5 15,9 21 11 34 18 NNE 1014,3 - 0,0
20.08.2017 15:00:00 29,7 17,2 22 12 40 21 NE 1014,5 - 0,0
20.08.2017 14:00:00 31,1 17,4 27 15 38 20 NE 1014,6 20 0,0
20.08.2017 13:00:00 30,8 18,9 23 12 34 18 NE 1014,6 - 0,0
20.08.2017 12:00:00 30,1 19,8 21 11 37 20 NE 1014,7 - 0,0
20.08.2017 11:00:00 29,8 18,6 28 15 36 19 NE 1014,6 18 0,0
20.08.2017 10:00:00 29,1 18,5 23 12 32 18 NNE 1014,2 - 0,0
20.08.2017 09:00:00 26,1 16,4 10 6 21 11 N 1014,1 - 0,0
20.08.2017 08:00:00 22,7 14,3 15 8 21 12 NNW 1013,7 - 0,0
20.08.2017 07:00:00 22,6 13,4 15 8 18 10 NNW 1013,3 - 0,0
20.08.2017 06:00:00 22,6 12,5 13 7 19 10 NNW 1012,7 - 0,0
20.08.2017 05:00:00 22,1 13,2 16 9 21 11 NNW 1012,5 20 0,0
20.08.2017 04:00:00 22,7 14,8 12 6 16 9 N 1012,3 - 0,0
20.08.2017 03:00:00 22,8 17,7 14 8 17 9 NNW 1012,4 - 0,0
20.08.2017 02:00:00 23,1 18,8 13 7 16 9 NNW 1012,5 - 0,0
20.08.2017 01:00:00 23,4 19,3 8 4 15 8 NW 1013,1 - 0,0
20.08.2017 00:00:00 22,6 20,7 10 6 16 9 N 1013,1 - 0,0
19.08.2017 23:00:00 23,4 21,7 14 7 22 12 N 1013,2 - 0,0
19.08.2017 22:00:00 24,0 21,9 16 8 21 11 N 1013,1 - 0,0
19.08.2017 21:00:00 24,7 22,0 13 7 18 10 N 1012,9 - 0,0
19.08.2017 20:00:00 25,6 22,1 16 8 20 11 NNE 1012,5 15 0,0
19.08.2017 19:00:00 26,8 22,8 17 9 33 18 NNE 1012,6 - 0,0
19.08.2017 18:00:00 27,4 22,8 21 12 32 17 NNE 1012,4 - 0,0
19.08.2017 17:00:00 28,4 22,4 21 11 29 16 NNE 1012,8 15 0,0
19.08.2017 16:00:00 30,5 22,1 21 11 36 19 NE 1012,8 - 0,0
19.08.2017 15:00:00 29,1 22,6 24 13 34 19 NNE 1012,9 - 0,0
19.08.2017 14:00:00 28,8 22,1 23 12 34 19 NNE 1013,2 15 0,0
19.08.2017 13:00:00 31,0 21,8 24 13 33 18 NE 1013,4 - 0,0
19.08.2017 12:00:00 31,1 22,1 20 11 30 16 NE 1013,6 - 0,0
19.08.2017 11:00:00 30,6 22,2 16 9 25 14 NE 1013,8 18 0,0
19.08.2017 10:00:00 29,3 21,8 13 7 19 11 NE 1014,1 - 0,0
19.08.2017 09:00:00 27,2 21,7 10 6 18 10 NNE 1014,2 - 0,0
19.08.2017 08:00:00 24,4 19,0 12 6 15 8 N 1014,4 18 0,0
19.08.2017 07:00:00 23,9 18,8 10 6 15 8 N 1014,0 - 0,0
19.08.2017 06:00:00 23,9 19,0 13 7 15 8 NNW 1013,9 - 0,0
19.08.2017 05:00:00 23,6 17,8 11 6 24 13 N 1013,4 18 0,0
19.08.2017 04:00:00 23,7 18,8 21 11 27 15 N 1013,7 - 0,0
19.08.2017 03:00:00 23,1 18,0 16 9 20 11 N 1014,0 - 0,0
19.08.2017 02:00:00 24,0 16,0 13 7 21 11 N 1014,3 - 0,0
19.08.2017 01:00:00 23,9 17,2 8 4 12 6 ESE 1014,4 - 0,0
19.08.2017 00:00:00 23,8 17,3 6 3 14 8 NNW 1014,7 - 0,0
18.08.2017 23:00:00 25,3 17,7 6 3 19 10 WNW 1014,9 - 0,0
18.08.2017 22:00:00 25,5 18,4 19 10 27 15 SSW 1014,8 - 0,0
18.08.2017 21:00:00 25,4 19,3 16 9 19 11 SSW 1014,6 - 0,0
18.08.2017 20:00:00 26,5 20,1 8 4 10 5 S 1014,5 20 0,0
18.08.2017 19:00:00 28,4 20,9 5 3 11 6 ESE 1014,9 - 0,0
18.08.2017 18:00:00 29,5 20,1 8 5 21 11 ENE 1014,9 - 0,0
18.08.2017 17:00:00 30,9 20,5 12 7 20 11 NE 1015,3 - 0,0
18.08.2017 16:00:00 30,8 19,5 12 6 19 10 ENE 1015,6 - 0,0
18.08.2017 15:00:00 30,6 19,6 10 5 18 10 E 1016,0 - 0,0
18.08.2017 14:00:00 30,2 20,7 11 6 21 11 ENE 1016,2 25 0,0
18.08.2017 13:00:00 31,2 18,5 15 8 24 13 ENE 1016,4 - 0,0
18.08.2017 12:00:00 32,7 15,7 19 10 28 15 NE 1016,8 - 0,0
18.08.2017 11:00:00 32,4 18,6 15 8 23 12 NE 1017,0 - 0,0
18.08.2017 10:00:00 31,3 17,2 10 5 15 8 NE 1016,8 - 0,0
18.08.2017 09:00:00 27,8 17,6 5 3 11 6 NNE 1016,8 - 0,0
18.08.2017 08:00:00 24,3 15,8 4 2 14 7 N 1016,8 20 0,0
18.08.2017 07:00:00 22,8 15,9 8 4 14 8 N 1016,5 - 0,0
18.08.2017 06:00:00 23,6 14,3 7 4 10 5 N 1016,3 - 0,0
18.08.2017 05:00:00 23,3 18,4 5 3 9 5 NNE 1016,0 - 0,0
18.08.2017 04:00:00 23,2 15,8 10 6 13 7 WSW 1016,3 - 0,0
18.08.2017 03:00:00 23,4 17,2 3 2 19 10 NNW 1016,4 - 0,0
18.08.2017 02:00:00 22,9 17,6 11 6 18 10 NNW 1016,6 - 0,0
18.08.2017 01:00:00 23,8 19,5 14 8 22 12 N 1016,9 - 0,0
18.08.2017 00:00:00 24,2 18,6 16 9 20 11 N 1016,7 - 0,0
17.08.2017 23:00:00 23,9 17,4 13 7 16 9 N 1016,6 - 0,0
17.08.2017 22:00:00 24,5 19,3 14 8 16 9 NNE 1016,3 - 0,0
17.08.2017 21:00:00 25,6 19,0 0 0 4 2 N 1015,8 - 0,0
17.08.2017 20:00:00 27,1 18,9 2 1 8 4 W 1015,5 - 0,0
17.08.2017 19:00:00 28,8 18,6 5 3 11 6 E 1015,5 - 0,0
17.08.2017 18:00:00 30,0 18,4 7 4 16 9 E 1015,7 - 0,0
17.08.2017 17:00:00 30,6 17,7 9 5 18 10 ENE 1015,8 25 0,0
17.08.2017 16:00:00 33,6 15,1 13 7 23 13 NNE 1016,1 - 0,0
17.08.2017 15:00:00 32,4 15,8 16 9 24 13 NE 1016,5 - 0,0
17.08.2017 14:00:00 32,6 17,2 15 8 25 13 NE 1016,8 25 0,0
17.08.2017 13:00:00 31,8 18,7 14 8 25 13 NE 1017,0 - 0,0
17.08.2017 12:00:00 30,0 18,4 15 8 25 14 ENE 1017,3 - 0,0
17.08.2017 11:00:00 30,2 18,9 17 9 26 14 NE 1017,4 20 0,0
17.08.2017 10:00:00 30,0 18,8 16 8 23 12 NE 1017,3 - 0,0
17.08.2017 09:00:00 28,4 17,3 8 4 13 7 NE 1017,0 - 0,0
17.08.2017 08:00:00 24,6 15,2 0 0 6 3 N 1016,9 - 0,0
17.08.2017 07:00:00 23,3 14,0 9 5 17 9 WSW 1016,7 - 0,0
17.08.2017 06:00:00 23,1 16,2 11 6 13 7 SW 1016,7 - 0,0
17.08.2017 05:00:00 22,9 15,7 8 4 9 5 W 1017,0 20 0,0
17.08.2017 04:00:00 23,7 16,7 6 3 12 6 NNW 1017,0 - 0,0
17.08.2017 03:00:00 24,6 15,2 9 5 11 6 NNW 1017,0 - 0,0
17.08.2017 02:00:00 24,8 13,7 0 0 5 3 N 1016,9 - 0,0
17.08.2017 01:00:00 24,6 14,4 4 2 8 5 SW 1017,1 - 0,0
17.08.2017 00:00:00 24,2 14,0 5 3 9 5 SW 1017,2 - 0,0
16.08.2017 23:00:00 23,6 13,7 9 5 14 8 SSW 1017,4 - 0,0
16.08.2017 22:00:00 24,2 13,4 3 2 6 4 WSW 1017,8 - 0,0
16.08.2017 21:00:00 24,9 14,7 5 3 8 5 N 1017,7 - 0,0
16.08.2017 20:00:00 26,3 15,0 5 3 18 10 NNW 1017,3 30 0,0
16.08.2017 19:00:00 28,0 14,6 13 7 20 11 NNE 1017,1 - 0,0
16.08.2017 18:00:00 30,2 15,5 16 8 23 12 NNE 1017,0 - 0,0
16.08.2017 17:00:00 30,6 15,1 15 8 24 13 NE 1017,1 30 0,0
16.08.2017 16:00:00 31,5 14,6 13 7 24 13 NE 1017,3 - 0,0
16.08.2017 15:00:00 30,1 18,2 15 8 23 13 NE 1017,8 - 0,0
16.08.2017 14:00:00 30,5 12,9 10 6 19 10 E 1018,1 30 0,0
16.08.2017 13:00:00 31,0 14,2 11 6 20 11 E 1018,4 - 0,0
16.08.2017 12:00:00 29,8 12,2 11 6 21 11 E 1018,7 - 0,0
16.08.2017 11:00:00 30,4 14,5 13 7 23 12 NE 1018,9 - 0,0
16.08.2017 10:00:00 29,8 15,5 11 6 19 10 NNE 1018,9 - 0,0
16.08.2017 09:00:00 28,8 8,5 6 3 11 6 ENE 1018,6 - 0,0
16.08.2017 08:00:00 23,7 11,4 8 4 12 6 W 1018,7 - 0,0
16.08.2017 07:00:00 22,5 14,9 11 6 25 13 NNW 1018,5 - 0,0
16.08.2017 06:00:00 22,5 14,6 21 11 28 15 N 1018,3 - 0,0
16.08.2017 05:00:00 23,0 15,1 22 12 28 15 N 1018,2 20 0,0
16.08.2017 04:00:00 22,6 12,2 20 11 24 13 N 1018,3 - 0,0
16.08.2017 03:00:00 22,9 13,1 18 10 22 12 N 1018,2 - 0,0
16.08.2017 02:00:00 23,5 10,9 6 3 11 6 NE 1018,6 - 0,0
16.08.2017 01:00:00 23,8 11,1 9 5 14 8 SE 1018,9 - 0,0
16.08.2017 00:00:00 23,8 11,8 8 4 14 7 N 1018,8 - 0,0
15.08.2017 23:00:00 22,6 12,8 13 7 16 9 SSW 1019,1 - 0,0
15.08.2017 22:00:00 23,9 15,1 7 4 8 5 SW 1019,3 - 0,0
15.08.2017 21:00:00 23,9 15,4 4 2 12 6 NW 1019,1 - 0,0
15.08.2017 20:00:00 26,2 15,9 9 5 16 9 N 1018,8 30 0,0
15.08.2017 19:00:00 28,8 16,4 13 7 17 9 NNE 1018,9 - 0,0
15.08.2017 18:00:00 29,0 16,9 11 6 17 9 ENE 1019,1 - 0,0
15.08.2017 17:00:00 30,1 14,2 11 6 18 10 ENE 1019,3 40 0,0
15.08.2017 16:00:00 30,7 13,0 9 5 18 10 E 1019,7 - 0,0
15.08.2017 15:00:00 29,6 17,4 9 5 21 11 ESE 1020,1 - 0,0
15.08.2017 14:00:00 29,6 18,4 14 7 22 12 E 1020,2 30 0,0
15.08.2017 13:00:00 29,1 17,6 14 7 23 12 E 1020,3 - 0,0
15.08.2017 12:00:00 29,9 11,4 11 6 21 12 ESE 1020,5 - 0,0
15.08.2017 11:00:00 30,0 9,5 13 7 21 11 E 1020,4 30 0,0
15.08.2017 10:00:00 30,7 9,6 8 4 14 8 E 1020,3 - 0,0
15.08.2017 09:00:00 28,7 10,8 5 3 10 5 SSE 1020,5 - 0,0
15.08.2017 08:00:00 24,9 10,7 8 4 9 5 SW 1020,4 30 0,0
15.08.2017 07:00:00 23,5 10,5 7 4 8 4 WSW 1020,1 - 0,0
15.08.2017 06:00:00 23,2 10,3 4 2 12 6 W 1020,0 - 0,0
15.08.2017 05:00:00 22,8 10,6 10 5 18 10 NNW 1019,7 - 0,0
15.08.2017 04:00:00 22,8 12,4 16 9 23 12 NNW 1019,7 - 0,0
15.08.2017 03:00:00 22,8 12,1 16 9 19 11 N 1019,8 - 0,0
15.08.2017 02:00:00 23,6 12,9 12 6 14 8 NNW 1019,8 - 0,0
15.08.2017 01:00:00 22,6 16,2 10 5 16 9 NNW 1020,0 - 0,0
15.08.2017 00:00:00 23,0 15,8 12 7 22 12 N 1020,0 - 0,0
14.08.2017 23:00:00 24,0 16,8 20 11 25 13 N 1019,7 - 0,0
14.08.2017 22:00:00 24,8 12,1 12 7 23 12 N 1019,5 - 0,0
14.08.2017 21:00:00 23,9 15,9 11 6 12 7 SSW 1019,1 - 0,0
14.08.2017 20:00:00 26,0 17,4 6 3 9 5 SSW 1018,6 30 0,0
14.08.2017 19:00:00 27,5 16,8 6 4 11 6 E 1018,7 - 0,0

tt = Température de l'air
td = dewpoint
ff = Vitesse du vent
fx = gusts
dd = Direction du vent
ppp = reduced air pressure
vv = visibility
rr = Quantités de précipitations

stations d'obs. à proximité